Location: Unspecified
(0.0000°N, 0.0000°E)
Time: 00:14:53
(UTC+00:00)

Courier 1B - Visible Passes

Search period start: 18 April 2014 00:00
Search period end: 28 April 2014 00:00
Orbit: 963 x 1209 km, 28.3° (Epoch: 17 April)

Date Brightness Start Highest point End Pass type
(mag) Time Alt. Az. Time Alt. Az. Time Alt. Az.
18 Apr 9.5 19:01:50 10° N 19:04:24 12° NNE 19:06:58 10° NE visible
18 Apr 9.6 20:52:51 10° NW 20:54:27 18° NW 20:54:27 18° NW visible
19 Apr 8.6 19:59:35 10° NNW 20:04:13 30° NNE 20:04:13 30° NNE visible
20 Apr 8.9 19:06:27 10° NNW 19:11:25 23° NNE 19:14:01 18° ENE visible
20 Apr 9.6 20:59:07 10° WNW 21:00:56 20° WNW 21:00:56 20° WNW visible
21 Apr 9.3 18:13:30 10° NNW 18:17:31 17° NNE 18:21:27 10° ENE visible
21 Apr 7.9 20:05:32 10° NW 20:10:46 51° N 20:10:46 51° N visible
22 Apr 8.1 19:12:04 10° NW 19:18:12 41° NNE 19:20:37 30° ENE visible
22 Apr 9.7 21:05:58 10° WNW 21:07:31 18° W 21:07:31 18° W visible
23 Apr 9.9 04:52:30 10° S 04:55:50 13° SSE 04:59:13 10° SE visible
23 Apr 8.6 18:18:43 10° NNW 18:24:26 30° NNE 18:29:59 10° E visible
23 Apr 7.8 20:12:02 10° WNW 20:17:24 60° W 20:17:24 60° W visible
24 Apr 7.4 19:18:15 10° NW 19:24:52 79° NNE 19:27:17 41° ESE visible
24 Apr 10.0 21:13:32 10° W 21:14:12 13° W 21:14:12 13° W visible
25 Apr 9.6 04:57:21 10° SSW 05:02:51 22° SSE 05:08:32 10° ESE visible
25 Apr 7.8 18:24:35 10° NW 18:31:10 56° NNE 18:37:11 11° ESE visible
25 Apr 8.6 20:19:10 10° W 20:24:06 36° SW 20:24:06 36° SW visible
26 Apr 9.7 04:05:45 13° S 04:08:46 16° SSE 04:13:06 10° ESE visible
26 Apr 7.9 19:25:00 10° WNW 19:31:29 56° SSW 19:34:00 35° SSE visible
27 Apr 10.0 03:15:36 11° SSE 03:15:36 11° SSE 03:16:47 10° SE visible
27 Apr 8.9 05:02:56 10° SW 05:09:36 37° SSE 05:16:35 10° E visible
27 Apr 7.6 18:30:59 10° WNW 18:37:47 79° SSW 18:43:53 12° SE visible
27 Apr 9.3 20:27:08 10° WSW 20:30:48 20° SW 20:30:48 20° SW visible
